Regional Weather Roundup
Issued by NWS

Home | Current Version | Previous Version | Graphics & Text | Print | Product List | Glossary On
Versions: 1 2 3 4 5 6 7 8 9 10 11 12 13 14 15 16 17 18 19 20 21 22 23 24 25 26 27 28 29 30 31 32 33 34 35 36 37 38 39 40 41 42 43 44 45 46 47 48 49 50
165
ASUS43 KLSX 202307
RWRMO

WEATHER SUMMARY FOR MISSOURI
NATIONAL WEATHER SERVICE SPRINGFIELD MO
500 PM CST SAT JAN 20 2018

NOTE: "FAIR" INDICATES FEW OR NO CLOUDS BELOW 12,000 FEET WITH NO
       SIGNIFICANT WEATHER AND/OR OBSTRUCTIONS TO VISIBILITY.
       CURRENT SKY AND/OR WEATHER CONDITIONS ARE NOT AVAILABLE FOR
       CHILLICOTHE AND FARMINGTON.

MOZ001>031-035>038-043-044-053-054-210000-
...NORTHERN AND WESTERN MISSOURI...

CITY           SKY/WX    TMP DP  RH WIND       PRES   REMARKS
KANSAS CTY INT CLOUDY    51  44  77 SE6       29.85R
KANSAS C DTWN  CLOUDY    54  44  69 E3        29.84S
LEE`S SUMMIT   CLOUDY    51  45  79 E5        29.85S
ST JOSEPH      CLOUDY    49  44  83 SE7       29.85R
CHILLICOTHE      N/A     49  42  77 SE5       29.90R
KIRKSVILLE     CLOUDY    47  44  90 S6        29.90R

$$
MOZ066>068-077>081-088>096-101>105-210000-
...SOUTHWEST MISSOURI...

CITY           SKY/WX    TMP DP  RH WIND       PRES   REMARKS
SPRINGFIELD    CLEAR     60  43  53 S13       29.87R
JOPLIN         CLEAR     63  47  55 S16       29.84R
BRANSON        PTCLDY    57  46  67 SE13G22   29.93R

$$
MOZ032>034-039>042-045>050-055>058-069>072-210000-
...CENTRAL MISSOURI...

CITY           SKY/WX    TMP DP  RH WIND       PRES   REMARKS
COLUMBIA       CLEAR     53  43  68 E6        29.89F
JEFFERSON CITY CLEAR     57  43  59 SE9       29.90S
ROLLA          CLEAR     55  44  66 S12G22    29.92S
SEDALIA        CLEAR     56  47  71 E6        29.88R
WHITEMAN AFB   PTCLDY    53  45  73 CALM      29.83R
WARRENSBURG    CLEAR     54  45  71 CALM      29.86R
OSAGE BEACH    CLEAR     58  44  60 S7        29.90S

$$
MOZ051-052-059>065-210000-
...EAST CENTRAL MISSOURI...

CITY           SKY/WX    TMP DP  RH WIND       PRES   REMARKS
ST LOUIS INTL  CLOUDY    51  40  65 E8        29.95R
SPIRIT OF STL  CLEAR     56  44  64 NW3       29.94R
ST CHARLES     CLEAR     47  38  71 E8        29.95S

$$
MOZ072>076-082>087-097>100-106>115-210000-
...SOUTH CENTRAL AND SOUTHEAST MISSOURI...

CITY           SKY/WX    TMP DP  RH WIND       PRES   REMARKS
CAPE GIRARDEAU CLOUDY    44  37  76 S10       30.06R
FARMINGTON     CLEAR     54  43  66 S7        29.98R
POPLAR BLUFF   CLOUDY    46  41  82 S6        30.05S
WEST PLAINS    CLEAR     57  46  66 SW14G24   29.97S

$$



USA.gov is the U.S. government's official web portal to all federal, state and local government web resources and services.